Fairbanks, AK

3:11 AM AKDT on October 15, 2019 (GMT -0800)
Fairbanks International

Weather History for PAFA - May, 2019

Change the Weather History Date:

Monday, May 13, 2019

  Actual Average Record
Temperature  
Mean Temperature 52 °F -  
Max Temperature 64 °F - 79 °F (2016)
Min Temperature 40 °F - 22 °F (2013)
Degree Days  
Heating Degree Days 13    
Month to date heating degree days 224  
Growing Degree Days 2 (Base 50)    
Moisture  
Dew Point 27 °F    
Average Humidity 40    
Maximum Humidity 65    
Minimum Humidity 20    
Precipitation  
Precipitation 0.00 in - 0.56 in (1964)
Month to date precipitation 0.22  
Year to date precipitation 2.70  
Snow  
Snow 0.00 in - - ()
Month to date snowfall T  
Snow Depth 0.00 in    
Sea Level Pressure  
Sea Level Pressure 29.89 in    
Wind  
Wind Speed 3 mph (North)    
Max Wind Speed 8 mph    
Max Gust Speed -    
Visibility 10 miles    
Events      
T = Trace of Precipitation, MM = Missing Value Source: NWS Daily Summary

Daily Weather History Graph

Daily Weather History Graph

Search for Another Location

Airport or City:

Astronomy

May. 13, 2019 Rise Set
Actual Time 4:35 AM AKDT 11:02 PM AKDT
Civil Twilight 2:48 AM AKDT 12:55 AM AKDT
Nautical Twilight Sun does not rise Sun does not rise
Astronomical Twilight Sun does not rise Sun does not rise
Moon 2:32 PM AKDT (5/13) 5:00 AM AKDT (5/13)
Length of Visible Light 22h 06m
Length of Day
18h 26m
Waxing Gibbous, 70% of the Moon is Illuminated
May 13
Waxing Gibbous
May 18
Full
May 26
Last Quarter
Jun 3
New
Jun 9
First Quarter

Hourly Weather History & Observations

Time (AKDT) Temp. Windchill Dew Point Humidity Pressure Visibility Wind Dir Wind Speed Gust Speed Precip Events Conditions
12:53 AM 45.0 °F - 34.0 °F 65% 29.96 in 10.0 mi Calm Calm - N/A   Mostly Cloudy
1:53 AM 45.0 °F - 33.1 °F 63% 29.96 in 10.0 mi Calm Calm - N/A   Mostly Cloudy
2:53 AM 42.1 °F 40.2 °F 28.9 °F 60% 29.95 in 10.0 mi North 3.5 mph - N/A   Mostly Cloudy
3:53 AM 44.1 °F 42.5 °F 28.9 °F 55% 29.95 in 10.0 mi North 3.5 mph - N/A   Mostly Cloudy
4:53 AM 39.9 °F 34.5 °F 28.9 °F 65% 29.94 in 10.0 mi ENE 8.1 mph - N/A   Mostly Cloudy
5:53 AM 39.9 °F 35.8 °F 28.9 °F 65% 29.95 in 10.0 mi ENE 5.8 mph - N/A   Mostly Cloudy
6:53 AM 42.1 °F 40.2 °F 30.0 °F 62% 29.96 in 10.0 mi ENE 3.5 mph - N/A   Mostly Cloudy
7:53 AM 45.0 °F 42.6 °F 28.0 °F 52% 29.95 in 10.0 mi NE 4.6 mph - N/A   Overcast
8:53 AM 48.0 °F - 28.0 °F 46% 29.95 in 10.0 mi NNE 3.5 mph - N/A   Overcast
9:53 AM 48.9 °F - 28.9 °F 46% 29.94 in 10.0 mi NE 3.5 mph - N/A   Overcast
10:53 AM 51.1 °F - 27.0 °F 39% 29.94 in 10.0 mi Calm Calm - N/A   Mostly Cloudy
11:53 AM 55.0 °F - 27.0 °F 34% 29.92 in 10.0 mi Calm Calm - N/A   Mostly Cloudy
12:53 PM 57.9 °F - 27.0 °F 31% 29.90 in 10.0 mi WSW 3.5 mph - N/A   Mostly Cloudy
1:53 PM 61.0 °F - 24.1 °F 24% 29.88 in 10.0 mi Variable 3.5 mph - N/A   Mostly Cloudy
2:53 PM 63.0 °F - 23.0 °F 22% 29.87 in 10.0 mi Variable 3.5 mph - N/A   Mostly Cloudy
3:53 PM 63.0 °F - 23.0 °F 22% 29.85 in 10.0 mi Variable 3.5 mph - N/A   Mostly Cloudy
4:53 PM 63.0 °F - 21.9 °F 21% 29.84 in 10.0 mi Variable 3.5 mph - N/A   Mostly Cloudy
5:53 PM 63.0 °F - 21.0 °F 20% 29.82 in 10.0 mi NW 4.6 mph - N/A   Mostly Cloudy
6:53 PM 63.0 °F - 21.9 °F 21% 29.81 in 10.0 mi Calm Calm - N/A   Mostly Cloudy
7:53 PM 62.1 °F - 24.1 °F 23% 29.81 in 10.0 mi West 5.8 mph - N/A   Mostly Cloudy
8:53 PM 60.1 °F - 26.1 °F 27% 29.81 in 10.0 mi WNW 5.8 mph - N/A   Mostly Cloudy
9:53 PM 57.9 °F - 30.0 °F 35% 29.81 in 10.0 mi West 6.9 mph - N/A   Mostly Cloudy
10:53 PM 54.0 °F - 28.9 °F 38% 29.80 in 10.0 mi West 5.8 mph - N/A   Mostly Cloudy
11:53 PM 52.0 °F - 27.0 °F 38% 29.80 in 10.0 mi Variable 3.5 mph - N/A   Mostly Cloudy